Volver al catálogo

FREGAT DEB

LostUNKNOWN
NORAD 45869·DEBRIS·🇷🇺 Russia

Lanzado Jul 18, 2011 desde Baikonur Cosmodrome

Loading…

Próximos Pases (próximas 24 horas)

TLE

ObsoletoSource: Space-Track

Época: Sep 7, 2021, 01:07 UTC

1 45869U 11037CT  21250.04653237  .00196566  00000-0  11497+0 0  9998
2 45869  51.4639 264.4697 2433004 294.6683  42.0560  9.98917812 45228

Sigue FREGAT DEB en tiempo real con AllMySat

Download on the App Store